Regional Weather Roundup
Issued by NWS Charleston, SC

Home | Current Version | Previous Version | Text Only | Print | Product List | Glossary On
Versions: 1 2 3 4 5 6 7 8 9 10 11 12 13 14 15 16 17 18 19 20 21 22 23 24 25 26 27 28 29 30 31 32 33 34 35 36 37 38 39 40 41 42 43 44 45 46 47 48 49 50
000
ASUS42 KCHS 310410
RWRCHS
REGIONAL WEATHER ROUNDUP
NATIONAL WEATHER SERVICE CHARLESTON SC
1200 AM EDT SUN AUG 31 2014

NOTE: "FAIR" INDICATES FEW OR NO CLOUDS BELOW 12,000 FEET WITH NO
SIGNIFICANT WEATHER AND/OR OBSTRUCTIONS TO VISIBILITY.

NOT ALL STATIONS ARE QUALITY CONTROLLED BY THE NATIONAL
WEATHER SERVICE. USE DATA WITH CAUTION...ESPECIALLY
DEWPOINT OBSERVATIONS.

SCZ027-030-031-034>040-042>050-310500-
...SOUTH CAROLINA...

CITY           SKY/WX    TMP DP  RH WIND       PRES   REMARKS
N CHARLESTON   PTCLDY    80  74  81 CALM      30.15S
WATERFRONT PRK   N/A     84 N/A N/A E13         N/A
FORT JOHNSON   NOT AVBL
MOUNT PLEASANT FAIR      77  75  94 E3        30.15F
JOHNS ISLAND   CLEAR     81  79  94 CALM      30.15F
PINOPOLIS        N/A     81  73  78 SE2       30.07F
MONCKS CORNER    N/A     75  75 100 CALM      30.16S
SUMMERVILLE    FAIR      73  73 100 CALM      30.16S
BEAUFORT MCAS  CLEAR     80  76  87 S5        30.14F
BEAUFORT ARPT  FAIR      79  77  94 CALM      30.14S
HILTON HEAD IS PTCLDY    81  77  89 CALM      30.15F
GEORGETOWN     NOT AVBL
WALTERBORO     CLEAR     75 N/A N/A E3        30.16S
ORANGEBURG     PTCLDY    76  71  85 SE3       30.16S
BARNWELL       MOCLDY    79  73  83 SE5       30.16S
AIKEN          CLOUDY    79  73  83 SE8       30.18F
MANNING        FAIR      75 N/A N/A CALM      30.16S
KINGSTREE      NOT AVBL
COLUMBIA       PTCLDY    81  70  69 SE7       30.14F
SUMTER         PTCLDY    77  73  89 SE2       30.15F
FLORENCE       PTCLDY    76  72  87 SE3       30.16S
MYRTLE BEACH   CLEAR     82  73  74 SE7       30.17S
N MYRTLE BEACH PTCLDY    81  74  79 SE6       30.17S

$$

GAZ063-065-086>088-099>101-113>116-118-119-134-136>141-150-310500-
...GEORGIA...

CITY           SKY/WX    TMP DP  RH WIND       PRES   REMARKS
SAVANNAH ARPT  PTCLDY    81  75  82 SE3       30.15S
HUNTER AAF     CLEAR     80  75  87 CALM      30.12F
FORT STEWART   CLEAR     78  74  89 CALM      30.13S
STATESBORO     NOT AVBL
SYLVANIA       PTCLDY    76  74  95 CALM      30.16S
CLAXTON        NOT AVBL
THOMSON        PTCLDY    83  76  79 S8        30.18S HX  90
AUGUSTA-BUSH   PTCLDY    77  71  82 SE6       30.13S
AUGUSTA-DANIEL PTCLDY    81  71  71 SE7       30.15S
SWAINSBORO     FAIR      82  77  83 SE9       30.14F HX  91
VIDALIA          N/A     81  73  78 SE6       30.15R
ALMA           PTCLDY    78  73  84 SE3       30.14R
WAYCROSS       MOCLDY    83  78  84 SE5       30.14R HX  92
JESUP            N/A     79  75  89 CALM      30.15R
BRUNSWICK      CLOUDY    79  73  83 CALM      30.15R
SAINT SIMONS   MOCLDY    82  75  79 SE6       30.14R

$$

SCZ027-028-034-036>038-045-046-048>050-GAZ119-141-310500-
...LAKE AND SUPPLEMENTAL COASTAL OBSERVATIONS...

STATION/POSITION TIME  TEMP    WIND        PRES    WAVE   SWELL
                       AIR SEA DIR/SP/G            HT/PER HT/PER/DIR
                 (UTC) (F)     (DEG/KT/KT) (MB)    (FT/S) (FT/S/D)
UPR LAKE MARION  NOT AVBL
WINYAH BAY       0300   82     150/  5     1021.0S
LAKE MURRAY      0300   82     170/ 11/ 12 1020.3R
ACE BASIN NERRS  0300   80        CALM     1021.0R
FORT PULASKI     0400   82     120/  4/  5 1020.8F
SAPELO ISLAND    0300   81     130/  2     1021.0S

$$

ANZ835-935-AMZ111-154-330-350-352-354-374-450-454-472-310500-
...C-MAN AND BUOY OBSERVATIONS...

STATION/POSITION TIME  TEMP    WIND        PRES    WAVE   SWELL
                       AIR SEA DIR/SP/G            HT/PER HT/PER/DIR
                 (UTC) (F)     (DEG/KT/KT) (MB)    (FT/S) (FT/S/D)
FOLLY BEACH CMAN 0300   83     110/  9/ 10 1021.5R
BUOY 41004       0400   84 83  140/  8/ 10 1020.5S   3/ 8   2/ 8
BUOY 41008       0400   83 85  140/ 10/ 10 1020.4S   2/ 8   2/100/ 8
5E ST. MARYS GA  0400      84                N/A     2/ 8
FRYING PAN BUOY  NOT AVBL
BUOY 41025       0400   80     150/ 10/ 14 1022.2R   3/10   3/140/10
CAPE LOOKOUT NC  0300   81     160/ 11/ 12 1022.1R
BUOY 41002       0320   81 83  150/ 10/ 12 1022.7R   3/10   3/130/10
BUOY 41010       0400   81 85  190/ 10/ 14 1021.0F   3/ 8   3/100/ 8
BUOY 41012       NOT AVBL
ST AUGUSTINE FL  0400   81     210/  5/  6 1021.2R
CAPERS NEARSHORE 0300   82     110/  8/ 12   N/A
FRIPP NEARSHORE  NOT AVBL


$$



USA.gov is the U.S. government's official web portal to all federal, state and local government web resources and services.